Погода в Чернобаевке

Украина / Херсонская область     46°41′41″N   32°32′42″E
темп.,
°C
ветер,
м/с
пор.,
м/с
влажн.,
%
обл.,
%
осадки,
мм/ч
давл.,
гПа
погр.,
м
17 октября, вс
вс1700:00+14св4956100 0.0 1016252
03:00+13с4754100 0.0 1016256
06:00+11ссв4965100 0.6 1017297
09:00+11ссв3663100 1.7 1017287
12:00+13ссв5756100 0.1 1018483
15:00+13с4665100 0.1 1017498
18:00+13с486499 0.0 1018325
21:00+12ссз376533 0.0 1019223
18 октября, пн
пн1800:00+9с367819 0.0 1020115
03:00+7с358161 0.0 102094
06:00+6ссз34825 0.0 102179
09:00+8ссз35685 0.0 1022235
12:00+13сз454511 0.0 10221060
15:00+14сз564012 0.0 10201221
18:00+11сз35515 0.0 1021193
21:00+9сз2257100 0.0 102230
19 октября, вт
вт1900:00+9з3457100 0.0 102274
03:00+8зсз496234 0.0 1021197
06:00+9зсз411665 0.0 1021419
09:00+9сз71271100 0.0 1022784
12:00+12сз8105260 0.1 10231656
15:00+13ссз79285 0.1 10242037
18:00+9ссз48361 0.0 1025336
21:00+7сз35450 0.0 102780
20 октября, ср
ср2000:00+6сз33480 0.0 102844
03:00+5сз335232 0.0 102945
06:00+4ссз3355100 0.0 102944
09:00+7ссв22474 0.0 1030147
12:00+11юз22331 0.0 1030941
15:00+13юз442671 0.0 10281171
18:00+9зюз3343100 0.0 102877
21:00+8ю34545 0.0 102778
21 октября, чт
чт2100:00+8ю366020 0.0 102797
03:00+8ю4870100 0.0 1025142
06:00+8ю410785 0.0 1024210
09:00+12ю611645 0.0 1024607
12:00+16ююз8104525 0.0 10231063
15:00+16ююз9114025 0.0 10211053
18:00+13ююз7137799 0.0 1019711
21:00+12ююз71486100 0.0 1019648